Casper, WY

11:41 PM MDT on May 29, 2017 (GMT -0600)
Natrona County International

Weather History for KCPR - November, 2012

Change the Weather History Date:

Friday, November 9, 2012

  Actual Average Record
Temperature  
Mean Temperature 47 °F 36 °F  
Max Temperature 66 °F 49 °F 69 °F (2016)
Min Temperature 28 °F 24 °F -6 °F (1950)
Degree Days  
Heating Degree Days 18 29  
Month to date heating degree days 167 242  
Since 1 July heating degree days 938 1141  
Cooling Degree Days 0 0  
Month to date cooling degree days 0 0  
Year to date cooling degree days 697 422  
Moisture  
Dew Point 27 °F    
Average Humidity 58    
Maximum Humidity 92    
Minimum Humidity 23    
Precipitation  
Precipitation 0.05 in 0.03 in 0.33 in (2010)
Month to date precipitation 0.05 0.27  
Year to date precipitation 7.05 11.54  
Snow  
Snow 0.10 in 0.30 in - ()
Month to date snowfall 0.1 2.8  
Since 1 July snowfall 5.3 12.0  
Since 1 September snowfall 5.3 12.0  
Snow Depth T in    
Sea Level Pressure  
Sea Level Pressure 29.54 in    
Wind  
Wind Speed 15 mph (North)    
Max Wind Speed 35 mph    
Max Gust Speed 45 mph    
Visibility 8 miles    
Events Fog , Snow    
T = Trace of Precipitation, MM = Missing Value Source: NWS Daily Summary

Daily Weather History Graph

Daily Weather History Graph

Search for Another Location

Airport or City:

Trip Planner

Search our weather history database for the weather conditions in past years. The results will help you decide how hot, cold, wet, or windy it might be!

Date:

Astronomy

Nov. 09, 2012 Rise Set
Actual Time 6:51 AM MST 4:47 PM MST
Civil Twilight 6:20 AM MST 5:17 PM MST
Nautical Twilight 5:46 AM MST 5:51 PM MST
Astronomical Twilight 5:13 AM MST 6:25 PM MST
Moon 1:46 AM MST (11/9) 2:08 PM MST (11/9)
Length of Visible Light 10h 56m
Length of Day
9h 56m
Waning Crescent, 22% of the Moon is Illuminated
Nov 9
Waning Crescent
Nov 13
New
Nov 20
First Quarter
Nov 28
Full
Dec 6
Last Quarter

Hourly Weather History & Observations

Time (MST) Temp. Windchill Dew Point Humidity Pressure Visibility Wind Dir Wind Speed Gust Speed Precip Events Conditions
12:53 AM 30.0 °F 26.5 °F 25.0 °F 82% 29.63 in 10.0 mi NW 3.5 mph - N/A   Clear
1:53 AM 33.1 °F 28.7 °F 24.1 °F 70% 29.60 in 10.0 mi ENE 4.6 mph - N/A   Clear
2:26 AM 50.0 °F - 19.4 °F 30% 29.64 in 10.0 mi SSW 12.7 mph - N/A   Clear
2:53 AM 48.9 °F - 19.0 °F 31% 29.53 in 10.0 mi SSW 12.7 mph - N/A   Clear
3:53 AM 51.1 °F - 19.9 °F 29% 29.52 in 10.0 mi SSW 10.4 mph 20.7 mph N/A   Clear
4:53 AM 50.0 °F - 19.0 °F 29% 29.53 in 10.0 mi SSW 13.8 mph - N/A   Clear
5:53 AM 48.9 °F - 23.0 °F 36% 29.54 in 10.0 mi SSW 11.5 mph - N/A   Clear
6:53 AM 51.1 °F - 25.0 °F 36% 29.56 in 10.0 mi SSW 18.4 mph 27.6 mph N/A   Clear
7:53 AM 52.0 °F - 26.1 °F 37% 29.57 in 10.0 mi Calm Calm - N/A   Clear
8:53 AM 57.0 °F - 28.9 °F 34% 29.56 in 10.0 mi SSW 16.1 mph 24.2 mph N/A   Clear
9:53 AM 60.1 °F - 30.0 °F 32% 29.53 in 10.0 mi SSW 18.4 mph 33.4 mph N/A   Clear
10:53 AM 63.0 °F - 30.0 °F 29% 29.49 in 10.0 mi SSW 28.8 mph 43.7 mph N/A   Partly Cloudy
11:53 AM 63.0 °F - 30.0 °F 29% 29.46 in 10.0 mi SW 34.5 mph 42.6 mph N/A   Partly Cloudy
12:53 PM 64.9 °F - 28.9 °F 26% 29.43 in 10.0 mi SSW 27.6 mph 36.8 mph N/A   Mostly Cloudy
1:53 PM 62.1 °F - 26.1 °F 25% 29.42 in 10.0 mi SW 26.5 mph 32.2 mph N/A   Overcast
2:53 PM 62.1 °F - 25.0 °F 24% 29.36 in 10.0 mi SSW 17.3 mph 27.6 mph N/A   Overcast
3:30 PM 39.2 °F 27.6 °F 28.4 °F 65% 29.52 in 10.0 mi NNW 28.8 mph 38.0 mph N/A   Mostly Cloudy
3:53 PM 37.0 °F 26.4 °F 30.0 °F 76% 29.49 in 10.0 mi North 20.7 mph - N/A   Overcast
4:53 PM 34.0 °F 28.0 °F 28.9 °F 82% 29.56 in 10.0 mi NNE 6.9 mph 17.3 mph N/A   Overcast
5:08 PM 33.8 °F 27.0 °F 28.4 °F 81% 29.59 in 10.0 mi North 8.1 mph - N/A   Overcast
5:53 PM 32.0 °F 23.6 °F 28.9 °F 88% 29.57 in 10.0 mi NNE 10.4 mph - N/A   Overcast
6:50 PM 32.0 °F 27.5 °F 30.2 °F 93% 29.61 in 8.0 mi North 4.6 mph - 0.01 in   Overcast
6:53 PM 32.0 °F 23.6 °F 30.0 °F 92% 29.57 in 7.0 mi NNE 10.4 mph - 0.01 in   Overcast
7:43 PM 30.2 °F 20.8 °F 30.2 °F 100% 29.58 in 1.8 mi NNE 11.5 mph - 0.00 in   Overcast
7:53 PM 30.0 °F 19.5 °F 28.9 °F 96% 29.55 in 0.5 mi NNE 13.8 mph - 0.00 in Fog Light Freezing Fog
8:12 PM 30.2 °F 20.2 °F 28.4 °F 93% 29.59 in 2.0 mi North 12.7 mph - N/A   Overcast
8:53 PM 30.0 °F 21.7 °F 28.9 °F 96% 29.58 in 0.8 mi North 9.2 mph - 0.00 in Snow Light Snow
9:07 PM 30.2 °F 20.8 °F 28.4 °F 93% 29.60 in 1.0 mi North 11.5 mph - 0.00 in Snow Light Snow
9:17 PM 30.2 °F 20.8 °F 28.4 °F 93% 29.59 in 3.0 mi North 11.5 mph - 0.00 in   Overcast
9:53 PM 28.9 °F 18.6 °F 27.0 °F 92% 29.57 in 10.0 mi WNW 12.7 mph - 0.01 in   Overcast
10:10 PM 28.4 °F 18.0 °F 26.6 °F 93% 29.57 in 3.0 mi NE 12.7 mph - 0.01 in Snow Light Snow
10:23 PM 28.4 °F 19.7 °F 26.6 °F 93% 29.56 in 9.0 mi NE 9.2 mph - 0.01 in   Overcast
10:53 PM 28.9 °F 21.1 °F 26.1 °F 89% 29.50 in 10.0 mi NNE 8.1 mph - 0.01 in   Overcast
11:34 PM 28.4 °F 18.5 °F 24.8 °F 86% 29.57 in 1.8 mi ENE 11.5 mph - 0.01 in Snow Light Snow
11:42 PM 28.4 °F 18.5 °F 24.8 °F 86% 29.56 in 3.0 mi NE 11.5 mph - 0.02 in Snow Light Snow
11:53 PM 28.0 °F 19.3 °F 25.0 °F 88% 29.51 in 9.0 mi NE 9.2 mph - 0.02 in   Overcast